User: anonymous   Login
Location: Fairmont
(43.6520°N, 94.4610°W)
Time: 12:53:01
(UTC-06:00)
Language:

Cosmos-2242 - Orbit

View from above orbital plane
View from above orbital plane
View from above satellite
View from above satellite

Ground track
Ground track

The orbit data is extracted from the following two-line orbital elements,

1 22626U 93024A   15026.88910939  .00001026  00000-0  11263-3 0  3233
2 22626 082.5247 143.6879 0020775 133.6030 226.6915 14.86578260176498
Epoch (UTC): 26 January 2015 21:20:19
Eccentricity: 0.0020775
inclination: 82.5247°
perigee height: 594 km
apogee height: 623 km
right ascension of ascending node: 143.6879°
argument of perigee: 133.6030°
revolutions per day: 14.86578260
mean anomaly at epoch: 226.6915°
orbit number at epoch: 17649

The dashed part of the orbit path shows where the satellite is in the earth's shadow,  

DLR